| time (UTC) | temp F | wind direction | speed MPH | gust MPH | rain 1hr in | rain 24hr in | rain mn in | humidity % | barometer mb |
| 20260510043005 | 55 | 275 | 0.0 | 0.0 | 0.00 | 0.00 | 0.00 | 70 | 1012.3 |
| 20260510042005 | 55 | 275 | 0.0 | 0.0 | 0.00 | 0.00 | 0.00 | 69 | 1012.3 |
| 20260510041004 | 55 | 275 | 0.0 | 0.0 | 0.00 | 0.00 | 0.00 | 69 | 1012.3 |
| 20260510035004 | 55 | 275 | 0.0 | 0.0 | 0.00 | 0.00 | 0.04 | 69 | 1012.5 |
| 20260510033005 | 55 | 275 | 0.0 | 0.0 | 0.00 | 0.00 | 0.04 | 68 | 1012.3 |
| 20260510032004 | 56 | 275 | 0.0 | 0.0 | 0.00 | 0.00 | 0.04 | 68 | 1012.3 |
| 20260510031004 | 56 | 275 | 0.0 | 0.0 | 0.00 | 0.00 | 0.04 | 68 | 1012.1 |
| 20260510025005 | 56 | 275 | 0.0 | 0.0 | 0.00 | 0.00 | 0.04 | 68 | 1012.0 |
| 20260510024004 | 56 | 275 | 0.0 | 0.0 | 0.00 | 0.00 | 0.04 | 67 | 1012.1 |
| 20260510023005 | 56 | 275 | 0.0 | 0.0 | 0.00 | 0.00 | 0.04 | 67 | 1012.1 |
| 20260510022005 | 56 | 275 | 0.0 | 0.0 | 0.00 | 0.00 | 0.04 | 66 | 1012.1 |
| 20260510021005 | 57 | 275 | 0.0 | 0.0 | 0.00 | 0.00 | 0.04 | 66 | 1012.1 |
| 20260510020005 | 57 | 275 | 0.0 | 0.0 | 0.00 | 0.00 | 0.04 | 65 | 1012.0 |
| 20260510015004 | 57 | 275 | 0.0 | 0.0 | 0.00 | 0.00 | 0.04 | 65 | 1012.0 |
| 20260510014005 | 58 | 275 | 0.0 | 0.0 | 0.00 | 0.00 | 0.04 | 65 | 1011.9 |
| 20260510013005 | 58 | 275 | 0.0 | 0.0 | 0.00 | 0.00 | 0.04 | 64 | 1011.8 |
| 20260510011005 | 58 | 275 | 0.0 | 0.0 | 0.00 | 0.00 | 0.04 | 63 | 1011.7 |
| 20260510010005 | 59 | 275 | 0.0 | 0.0 | 0.00 | 0.00 | 0.04 | 63 | 1011.5 |
| 20260510005004 | 59 | 275 | 0.0 | 0.0 | 0.00 | 0.00 | 0.04 | 63 | 1011.5 |
| 20260510003005 | 60 | 275 | 0.0 | 0.0 | 0.00 | 0.00 | 0.04 | 62 | 1011.5 |
| 20260510001005 | 61 | 274 | 0.0 | 0.0 | 0.00 | 0.00 | 0.04 | 62 | 1011.4 |
| 20260510000004 | 61 | 274 | 0.0 | 0.0 | 0.00 | 0.00 | 0.04 | 61 | 1011.4 |
| 20260509235004 | 61 | 274 | 0.0 | 0.0 | 0.00 | 0.00 | 0.04 | 61 | 1011.4 |
| 20260509233004 | 62 | 274 | 0.0 | 0.0 | 0.00 | 0.00 | 0.04 | 61 | 1011.3 |
| 20260509232005 | 62 | 274 | 0.0 | 0.0 | 0.00 | 0.00 | 0.04 | 60 | 1011.3 |
| 20260509225004 | 62 | 275 | 0.0 | 0.0 | 0.00 | 0.00 | 0.04 | 60 | 1011.2 |
| 20260509224005 | 62 | 275 | 0.0 | 0.0 | 0.00 | 0.00 | 0.04 | 59 | 1011.2 |
| 20260509223005 | 62 | 275 | 0.0 | 0.0 | 0.00 | 0.00 | 0.04 | 59 | 1011.3 |
| 20260509222004 | 62 | 273 | 0.0 | 0.0 | 0.00 | 0.00 | 0.04 | 59 | 1011.4 |
| 20260509221005 | 62 | 273 | 0.0 | 0.0 | 0.00 | 0.00 | 0.04 | 59 | 1011.3 |
| 20260509220005 | 62 | 267 | 0.0 | 0.0 | 0.00 | 0.00 | 0.04 | 58 | 1011.2 |
| 20260509215004 | 63 | 269 | 0.0 | 0.0 | 0.00 | 0.00 | 0.04 | 58 | 1011.2 |
| 20260509212004 | 64 | 271 | 0.0 | 2.0 | 0.00 | 0.00 | 0.04 | 58 | 1011.2 |
| 20260509211004 | 64 | 273 | 0.0 | 1.0 | 0.00 | 0.00 | 0.04 | 57 | 1011.2 |
| 20260509210004 | 64 | 273 | 0.0 | 1.0 | 0.00 | 0.00 | 0.04 | 56 | 1011.1 |
| 20260509205004 | 64 | 273 | 0.0 | 1.0 | 0.00 | 0.00 | 0.04 | 56 | 1011.2 |
| 20260509204004 | 64 | 273 | 0.0 | 2.0 | 0.00 | 0.00 | 0.04 | 57 | 1011.2 |
| 20260509203004 | 64 | 273 | 1.0 | 4.0 | 0.00 | 0.00 | 0.04 | 56 | 1011.2 |
| 20260509202004 | 64 | 290 | 0.0 | 1.0 | 0.00 | 0.00 | 0.04 | 55 | 1011.3 |
| 20260509200004 | 64 | 274 | 2.0 | 3.0 | 0.00 | 0.00 | 0.04 | 56 | 1011.4 |
| 20260509195004 | 64 | 336 | 0.0 | 2.0 | 0.00 | 0.00 | 0.04 | 56 | 1011.3 |
| 20260509194005 | 64 | 328 | 0.0 | 2.0 | 0.00 | 0.00 | 0.04 | 56 | 1011.3 |
| 20260509193004 | 64 | 350 | 0.0 | 2.0 | 0.00 | 0.00 | 0.04 | 58 | 1011.3 |
| 20260509191004 | 63 | 9 | 1.0 | 2.0 | 0.00 | 0.00 | 0.04 | 59 | 1011.7 |
| 20260509190005 | 63 | 15 | 0.0 | 2.0 | 0.00 | 0.00 | 0.04 | 58 | 1011.9 |
| 20260509185005 | 63 | 26 | 0.0 | 4.0 | 0.00 | 0.00 | 0.04 | 59 | 1012.0 |
| 20260509183004 | 63 | 296 | 1.0 | 3.0 | 0.00 | 0.00 | 0.04 | 58 | 1012.2 |
| 20260509181005 | 63 | 284 | 1.0 | 2.0 | 0.00 | 0.00 | 0.04 | 59 | 1012.3 |
| 20260509180005 | 63 | 267 | 0.0 | 5.0 | 0.00 | 0.00 | 0.04 | 59 | 1012.4 |
| 20260509175004 | 63 | 261 | 0.0 | 2.0 | 0.00 | 0.00 | 0.04 | 59 | 1012.4 |
| 20260509174004 | 63 | 273 | 4.0 | 5.0 | 0.00 | 0.00 | 0.04 | 58 | 1012.5 |
| 20260509173004 | 64 | 269 | 0.0 | 4.0 | 0.00 | 0.00 | 0.04 | 58 | 1012.4 |
| 20260509172005 | 64 | 284 | 3.0 | 5.0 | 0.00 | 0.00 | 0.04 | 60 | 1012.4 |
| 20260509171004 | 63 | 276 | 0.0 | 5.0 | 0.00 | 0.00 | 0.04 | 61 | 1012.3 |
| 20260509165004 | 62 | 246 | 0.0 | 2.0 | 0.00 | 0.00 | 0.04 | 62 | 1012.4 |
| 20260509164004 | 62 | 246 | 0.0 | 4.0 | 0.00 | 0.00 | 0.04 | 64 | 1012.5 |
| 20260509163005 | 62 | 283 | 1.0 | 5.0 | 0.00 | 0.00 | 0.04 | 66 | 1012.5 |
| 20260509162004 | 62 | 271 | 2.0 | 5.0 | 0.00 | 0.00 | 0.04 | 66 | 1012.5 |
| 20260509161005 | 62 | 244 | 0.0 | 2.0 | 0.00 | 0.00 | 0.04 | 66 | 1012.5 |
| 20260509160005 | 62 | 238 | 0.0 | 1.0 | 0.00 | 0.00 | 0.03 | 64 | 1012.7 |
| 20260509155004 | 63 | 238 | 0.0 | 1.0 | 0.00 | 0.00 | 0.03 | 62 | 1013.0 |
| 20260509154004 | 64 | 240 | 2.0 | 3.0 | 0.00 | 0.00 | 0.03 | 61 | 1013.3 |
| 20260509153004 | 64 | 90 | 4.0 | 4.0 | 0.00 | 0.00 | 0.02 | 59 | 1013.3 |
| 20260509152005 | 65 | 260 | 2.0 | 2.0 | 0.00 | 0.00 | 0.01 | 58 | 1013.4 |
| 20260509145005 | 65 | 141 | 0.0 | 5.0 | 0.00 | 0.00 | 0.00 | 53 | 1013.3 |
| 20260509144005 | 65 | 246 | 1.0 | 5.0 | 0.00 | 0.00 | 0.00 | 51 | 1013.3 |
| 20260509143004 | 64 | 130 | 0.0 | 7.0 | 0.00 | 0.00 | 0.00 | 52 | 1013.2 |
| 20260509142004 | 64 | 98 | 2.0 | 8.0 | 0.00 | 0.00 | 0.00 | 53 | 1013.2 |
| 20260509141004 | 63 | 80 | 1.0 | 8.0 | 0.00 | 0.00 | 0.00 | 55 | 1013.2 |
| 20260509140005 | 63 | 310 | 3.0 | 9.0 | 0.00 | 0.00 | 0.00 | 55 | 1013.2 |
| 20260509135005 | 62 | 312 | 4.0 | 9.0 | 0.00 | 0.00 | 0.00 | 57 | 1013.2 |
| 20260509134004 | 62 | 301 | 2.0 | 5.0 | 0.00 | 0.00 | 0.00 | 58 | 1013.1 |
| 20260509133004 | 61 | 34 | 3.0 | 7.0 | 0.00 | 0.00 | 0.00 | 59 | 1013.1 |
| 20260509132004 | 61 | 140 | 0.0 | 5.0 | 0.00 | 0.00 | 0.00 | 59 | 1013.1 |
| 20260509131005 | 60 | 12 | 1.0 | 5.0 | 0.00 | 0.00 | 0.00 | 60 | 1013.2 |
| 20260509130004 | 60 | 42 | 1.0 | 7.0 | 0.00 | 0.00 | 0.00 | 62 | 1013.2 |
| 20260509123005 | 58 | 99 | 2.0 | 7.0 | 0.00 | 0.00 | 0.00 | 64 | 1013.3 |
| 20260509122004 | 58 | 123 | 0.0 | 4.0 | 0.00 | 0.00 | 0.00 | 65 | 1013.4 |
| 20260509121005 | 57 | 128 | 0.0 | 2.0 | 0.00 | 0.00 | 0.00 | 65 | 1013.3 |
| 20260509120004 | 57 | 126 | 1.0 | 2.0 | 0.00 | 0.00 | 0.00 | 66 | 1013.3 |
| 20260509115004 | 57 | 126 | 0.0 | 2.0 | 0.00 | 0.00 | 0.00 | 66 | 1013.3 |
| 20260509114004 | 56 | 126 | 0.0 | 0.0 | 0.00 | 0.00 | 0.00 | 66 | 1013.2 |
| 20260509113004 | 56 | 130 | 1.0 | 2.0 | 0.00 | 0.00 | 0.00 | 66 | 1013.2 |
| 20260509112005 | 56 | 131 | 1.0 | 5.0 | 0.00 | 0.00 | 0.00 | 66 | 1013.1 |
| 20260509111004 | 56 | 25 | 1.0 | 3.0 | 0.00 | 0.00 | 0.00 | 66 | 1013.2 |
| 20260509110005 | 56 | 230 | 0.0 | 4.0 | 0.00 | 0.00 | 0.00 | 66 | 1013.2 |
| 20260509105004 | 56 | 93 | 0.0 | 5.0 | 0.00 | 0.00 | 0.00 | 66 | 1013.2 |
| 20260509103004 | 55 | 105 | 0.0 | 4.0 | 0.00 | 0.00 | 0.00 | 65 | 1012.9 |
| 20260509101004 | 55 | 90 | 1.0 | 2.0 | 0.00 | 0.00 | 0.00 | 65 | 1012.7 |
| 20260509095004 | 55 | 90 | 1.0 | 2.0 | 0.00 | 0.00 | 0.00 | 65 | 1012.7 |
| 20260509094004 | 55 | 90 | 1.0 | 5.0 | 0.00 | 0.00 | 0.00 | 65 | 1012.8 |
| 20260509093004 | 55 | 103 | 0.0 | 2.0 | 0.00 | 0.00 | 0.00 | 65 | 1012.8 |
| 20260509092004 | 55 | 103 | 2.0 | 4.0 | 0.00 | 0.00 | 0.00 | 64 | 1012.7 |
| 20260509091005 | 55 | 98 | 1.0 | 4.0 | 0.00 | 0.00 | 0.00 | 64 | 1012.8 |
| 20260509090005 | 55 | 98 | 0.0 | 4.0 | 0.00 | 0.00 | 0.00 | 64 | 1012.8 |
| 20260509083005 | 54 | 111 | 0.0 | 2.0 | 0.00 | 0.00 | 0.00 | 64 | 1013.2 |
| 20260509082004 | 54 | 111 | 3.0 | 4.0 | 0.00 | 0.00 | 0.00 | 64 | 1013.2 |
| 20260509081004 | 54 | 98 | 0.0 | 1.0 | 0.00 | 0.00 | 0.00 | 64 | 1013.1 |
| 20260509080004 | 53 | 90 | 0.0 | 1.0 | 0.00 | 0.00 | 0.00 | 65 | 1013.2 |
| 20260509074004 | 53 | 66 | 0.0 | 0.0 | 0.00 | 0.00 | 0.00 | 64 | 1013.4 |
| 20260509073005 | 53 | 66 | 0.0 | 0.0 | 0.00 | 0.00 | 0.00 | 63 | 1013.4 |
| 20260509072004 | 52 | 66 | 0.0 | 0.0 | 0.00 | 0.00 | 0.00 | 61 | 1013.4 |
| 20260509070004 | 53 | 66 | 0.0 | 0.0 | 0.00 | 0.00 | 0.00 | 59 | 1013.6 |
| 20260509065005 | 53 | 66 | 0.0 | 0.0 | 0.00 | 0.00 | 0.00 | 59 | 1013.6 |
| 20260509064004 | 53 | 66 | 0.0 | 0.0 | 0.00 | 0.00 | 0.00 | 58 | 1013.7 |
| 20260509063005 | 54 | 66 | 0.0 | 0.0 | 0.00 | 0.00 | 0.00 | 57 | 1013.8 |
| 20260509061004 | 54 | 66 | 0.0 | 0.0 | 0.00 | 0.00 | 0.00 | 55 | 1014.0 |
| 20260509060005 | 54 | 66 | 0.0 | 0.0 | 0.00 | 0.00 | 0.00 | 55 | 1014.1 |
| 20260509055004 | 55 | 66 | 0.0 | 0.0 | 0.00 | 0.00 | 0.00 | 54 | 1014.1 |
| 20260509054004 | 56 | 66 | 0.0 | 0.0 | 0.00 | 0.00 | 0.00 | 53 | 1014.2 |
| 20260509053004 | 56 | 66 | 0.0 | 1.0 | 0.00 | 0.00 | 0.00 | 52 | 1014.2 |
| 20260509052004 | 57 | 66 | 0.0 | 1.0 | 0.00 | 0.00 | 0.00 | 52 | 1014.3 |
| 20260509051004 | 57 | 66 | 0.0 | 0.0 | 0.00 | 0.00 | 0.00 | 51 | 1014.5 |
| 20260509050005 | 58 | 66 | 0.0 | 0.0 | 0.00 | 0.00 | 0.00 | 49 | 1014.6 |
| 20260509045004 | 58 | 66 | 0.0 | 0.0 | 0.00 | 0.00 | 0.00 | 49 | 1014.6 |
| 20260509044005 | 58 | 66 | 0.0 | 1.0 | 0.00 | 0.00 | 0.00 | 48 | 1014.6 |